Location: Berlin
(38.3226°N, 75.2177°W)
Time: 22:49:51
(UTC+00:00)

ATLAS 2AS CENTAUR R/B - Pass Details

Date: 26 October 2020
Orbit: 939 x 1273 km, 63.7° (Epoch: 23 November)

Event Time Altitude Azimuth Distance (km) Brightness Sun altitude
Rises 00:46:47 0° 331° (NNW) 4,136 6.3 -31.5°
Reaches altitude 10° 00:50:02 10° 342° (NNW) 3,122 5.4 -32.2°
Enters shadow 00:54:14 26° 11° (N) 2,079 4.1 -33.0°
